Location: ???????
(55.4362°N, 38.1183°E)
Time: 11:27:38
(UTC+00:00)

deb Delta 139 - Pass Details

Date: 03 February 2022
Orbit: 790 x 1093 km, 98.7° (Epoch: 23 May)

Event Time Altitude Azimuth Distance (km) Brightness Sun altitude
Rises 01:33:16 0° 26° (NNE) 3,764 ? -31.5°
Reaches altitude 10° 01:37:51 10° 57° (ENE) 2,870 ? -30.9°
Maximum altitude 01:40:11 12° 78° (ENE) 2,748 ? -30.6°
Drops below altitude 10° 01:42:31 10° 99° (E) 2,912 ? -30.3°
Sets 01:47:14 0° 129° (SE) 3,891 ? -29.6°
